Regional Weather Roundup
Issued by NWS Jackson, KY

Home | Current Version | Previous Version | Text Only | Print | Product List | Glossary Off
Versions: 1 2 3 4 5 6 7 8 9 10 11 12 13 14 15 16 17 18 19 20 21 22 23 24 25 26 27

000
ASUS43 KJKL 181110
RWRJKL

EAST KENTUCKY HOURLY WEATHER ROUNDUP
NATIONAL WEATHER SERVICE JACKSON KY
700 AM EDT WED OCT 18 2017

NOTE: "FAIR" INDICATES FEW OR NO CLOUDS BELOW 12,000 FEET WITH
NO SIGNIFICANT WEATHER AND/OR OBSTRUCTIONS TO VISIBILITY.

* THESE REPORTS ARE NOT UNDER NWS QUALITY CONTROL AND MAY NOT
  REPORT WEATHER SUCH AS PRECIPITATION AND FOG.

KYZ079-080-083-085-087-088-110-112-115-119-120-181200
...EASTERN KENTUCKY...

CITY           SKY/WX    TMP DP  RH WIND       PRES   REMARKS
JACKSON        CLOUDY    43  40  89 CALM      30.31R
LONDON         CLOUDY    39  37  92 CALM      30.32R
SOMERSET*      FOG       37  37 100 CALM      30.33R VSB 1
MONTICELLO*    PTCLDY    35  34  96 CALM      30.33R
WILLIAMSBURG*  CLOUDY    37  37 100 CALM      30.33R VSB<1/4
MIDDLESBORO*   FOG       39  39 100 CALM      30.36R VSB 1/4
HARLAN APT*    CLOUDY    41  39  93 CALM      30.35R VSB 1/4
PIKE CO APT*     N/A     41  41 100 S5        30.32R
BIG SANDY APT* SUNNY     40  40 100 CALM      30.32R
MOREHEAD APT*  SUNNY     41  37  87 CALM      30.34R
$$

KYZ035-036-041-042-044-050-067-078-099-181200
...CENTRAL KENTUCKY...

CITY           SKY/WX    TMP DP  RH WIND       PRES   REMARKS
MT STERLING*   CLOUDY    39  37  93 CALM      30.33R
FLEMING/MASON* CLEAR     41  40  95 SE5       30.33R
DANVILLE*      CLEAR     37  37 100 CALM      30.32R
LEXINGTON      CLEAR     41  37  86 SE6       30.31R
FRANKFORT      CLEAR     39  35  86 CALM      30.29R
LOUISVILLE     PTCLDY    45  43  93 SE6       30.29R
LEBANON*         N/A     41  39  93 CALM      30.30R FOG
GLASGOW*       CLEAR    N/A N/A N/A CALM      30.29S
BOWLING GREEN  CLEAR     40  40 100 CALM      30.30R
$$

KYZ091>093-OHZ055-061-077-WVZ005-015-034-035-042-181200
...SOUTHERN OHIO/WEST VIRGINIA...

CITY           SKY/WX    TMP DP  RH WIND       PRES   REMARKS
COVINGTON      CLEAR     43  41  93 SE3       30.30R
COLUMBUS       CLEAR     44  41  89 CALM      30.31R
DAYTON         CLEAR     44  41  89 S6        30.30R
WILMINGTON     CLEAR     40  39  97 CALM      30.31R
HUNTINGTON     CLEAR     38  36  92 E3        30.32R
CHARLESTON     PTCLDY    37  36  96 CALM      30.33R
PINEVILLE*     CLEAR     35  34  97 MISG      30.39S
BECKLEY        CLEAR     39  34  82 CALM      30.34R
BLUEFIELD      CLOUDY    39  34  82 CALM      30.34S
LOGAN CO APT*    N/A     43  41  93 CALM      30.32S
$$

VAZ002-007-008-TNZ017-027-036-066-071-181200
...SOUTHWEST VIRGINIA/EAST TENNESSEE...

CITY           SKY/WX    TMP DP  RH WIND       PRES   REMARKS
WISE*          CLEAR     45  37  76 CALM      30.34R
JONESVILLE*      N/A     36  36 100 CALM      30.36R
ABINGDON*      CLOUDY    44  39  83 E3        30.33R
BRISTOL        PTCLDY    39  38  96 CALM      30.34R
MORRISTOWN*    SUNNY     43  39  87 CALM      30.33R
SEVIERVILLE*   SUNNY     39  39 100 CALM      30.33R
KNOXVILLE      MOCLDY    43  43 100 CALM      30.32R FOG
LAFOLLETTE*    MOSUNNY   39  39 100 CALM      30.37R
OAK RIDGE      FOG       44  44 100 CALM      30.35R VSB 1/4
CROSSVILLE     FOG       39  38  96 CALM      30.32R VSB<1/4
NASHVILLE      CLEAR     42  40  92 S3        30.30R
$$

...KEY TO REMARKS...
VSB - VISIBILITY IN MILES
WCI - WIND CHILL INDEX
HX  - HEAT INDEX

$$




USA.gov is the U.S. government's official web portal to all federal, state and local government web resources and services.